Wetbulb
58.91 58.82 58.73 58.66 58.51 58.54 58.57 58.77 58.96 58.89 58.52 58.34 58.38 58.42 58.36 58.47 58.39 58.32 58.22 57.93 57.16 57.34 57.11 57.43 58.96 60.31 63.26 60.96 59.49 69.69 76.02 75.52 74.32 69.99 70.13 69.14 67.66 67.61 65.09 66.33 66.14 64.06 64.19 64.43 65.56 65.49 65.40
58.50 58.39 58.36 58.49 58.20 58.09 57.96 58.17 58.46 58.51 58.37 58.22 58.11 58.04 58.08 58.17 58.20 57.99 57.99 57.85 56.99 56.48 56.58 58.04 60.00 59.97 62.25 57.36 64.65 69.18 70.22 71.59 68.88 66.41 69.39 69.11 65.86 68.12 66.94 66.58 65.18 64.78 64.43 64.53 65.36 65.09 65.27
57.72 57.70 57.72 57.99 57.94 57.70 57.78 57.98 58.02 57.85 57.97 58.04 58.02 58.01 57.95 57.86 57.97 57.93 57.76 57.68 57.47 56.17 56.58 59.64 60.29 62.59 59.19 59.08 65.78 67.86 67.74 64.30 64.27 68.22 67.31 66.62 65.41 64.54 68.24 65.95 67.48 64.43 61.89 63.46 64.07 64.38 63.84
56.96 57.10 57.52 57.82 57.85 57.55 57.64 57.83 57.85 57.75 57.70 57.81 57.80 57.64 57.58 57.40 57.30 57.41 57.08 56.94 57.52 58.07 59.19 60.25 60.26 62.40 56.76 62.66 66.71 63.98 64.33 62.40 63.80 67.93 70.95 65.70 65.34 68.39 68.17 69.16 65.75 63.30 63.20 59.71 62.79 63.15 63.83
56.70 57.25 57.39 57.85 58.07 57.71 57.63 57.54 57.68 57.66 57.72 57.65 57.67 57.29 57.43 57.15 56.89 56.79 56.68 56.75 58.31 59.31 60.50 60.76 63.28 60.21 55.51 63.98 62.29 62.50 63.09 62.17 65.37 70.52 69.28 63.87 64.83 66.33 66.88 64.94 61.86 62.45 58.60 58.33 60.95 64.16 62.84
57.01 57.13 57.30 57.69 57.61 57.78 57.72 57.68 57.18 57.34 57.27 56.89 56.61 56.49 56.32 56.92 56.76 56.23 56.17 57.27 59.93 60.10 61.70 63.35 62.87 57.96 57.39 58.32 62.33 62.36 63.56 63.60 65.32 65.07 59.80 60.47 62.17 63.31 64.78 61.73 53.86 55.24 55.97 57.87 59.32 63.69 63.62
56.92 56.93 57.31 57.47 57.58 57.62 57.70 57.10 56.47 56.20 56.10 56.10 56.14 55.88 55.67 56.13 56.09 55.91 57.87 63.27 61.63 59.31 56.74 53.74 54.70 56.30 58.43 61.60 63.02 61.57 63.46 63.24 62.97 62.36 61.51 59.85 60.15 58.51 60.42 61.94 60.51 58.36 57.39 57.37 60.00 63.75 63.32
56.31 56.53 56.92 57.16 57.40 57.36 57.17 56.15 55.76 55.66 55.70 55.74 55.49 55.45 55.10 54.82 55.44 55.37 60.71 60.71 60.49 61.31 57.21 59.28 58.23 57.06 59.90 60.75 57.73 60.06 63.21 60.05 61.14 60.98 59.98 60.56 57.61 59.17 59.45 60.68 59.13 56.57 55.92 58.10 60.84 63.47 63.34
55.93 56.43 57.10 57.24 57.22 56.77 56.71 55.74 55.68 55.70 55.68 55.52 55.15 54.94 54.43 54.02 54.80 58.11 60.39 60.75 63.81 63.89 57.46 56.59 57.45 57.55 58.20 59.21 56.56 58.39 60.26 59.66 57.91 57.80 57.77 58.73 56.15 56.44 56.29 55.49 54.59 56.32 57.29 58.31 58.70 62.23 63.77
56.10 56.65 57.08 57.00 56.81 56.61 56.46 56.00 55.47 55.55 55.39 55.19 55.10 54.47 53.75 53.04 55.39 63.90 62.94 64.14 64.40 63.90 54.83 53.72 54.38 56.93 57.92 58.70 55.57 59.48 61.20 58.48 55.57 55.41 55.95 56.90 57.59 54.79 55.57 54.80 55.51 55.16 60.32 59.22 58.32 58.03 55.82
55.60 56.88 56.93 56.73 56.63 56.42 56.16 55.59 55.39 55.23 55.47 54.96 54.75 54.16 53.30 52.26 59.26 60.33 62.98 64.72 63.91 60.80 47.56 54.37 54.89 59.74 58.46 56.66 56.69 56.37 60.03 57.16 53.44 53.24 53.77 54.31 53.30 53.30 54.78 56.71 56.43 56.17 59.18 58.25 57.49 57.16 56.23
56.33 56.77 56.85 56.72 56.40 56.22 55.91 55.14 55.00 54.86 54.53 54.43 54.33 53.65 52.89 56.71 59.48 61.20 63.71 63.80 60.31 52.90 47.52 52.74 54.98 54.59 54.69 55.91 54.59 56.39 56.66 57.26 55.86 52.21 52.86 53.39 54.31 54.32 54.39 55.29 56.96 57.63 55.75 57.85 57.74 55.70 50.87
56.34 56.63 56.67 56.42 55.91 55.79 55.34 54.96 54.84 54.55 54.29 53.96 53.43 52.45 53.18 57.98 59.35 62.58 64.43 60.54 52.71 49.58 54.77 51.27 51.96 54.09 54.62 53.50 53.39 54.30 54.18 52.92 51.14 48.52 49.01 51.26 51.63 54.18 54.77 52.93 55.44 55.55 54.18 49.94 49.23 49.29 49.25
56.38 56.40 55.74 55.24 54.74 54.22 54.59 54.86 54.64 54.33 54.06 53.58 52.44 51.56 55.27 58.61 61.78 61.69 62.25 57.28 49.06 51.94 53.17 55.65 54.77 53.05 52.24 53.59 53.43 53.20 53.34 51.87 53.75 52.40 51.83 48.35 46.61 51.50 54.13 53.54 53.81 55.00 54.38 50.26 45.33 46.69 49.20
56.19 55.98 54.74 54.53 54.16 53.92 54.08 54.25 54.21 53.94 53.71 52.86 51.45 60.71 62.33 63.23 63.26 62.68 59.55 52.58 52.99 54.02 55.14 54.05 54.27 52.63 51.67 52.49 52.33 52.76 53.01 52.80 54.02 54.41 50.37 50.45 49.31 53.93 53.86 54.61 54.48 53.90 51.82 55.78 51.38 51.93 48.89
55.55 55.46 54.43 54.27 54.04 53.96 54.02 54.27 54.16 53.92 53.39 52.20 61.03 62.44 60.74 62.18 63.07 61.77 57.12 50.88 53.96 55.75 55.70 55.37 52.62 53.17 51.87 51.77 51.16 52.18 52.55 53.74 53.07 54.96 56.37 53.88 50.10 53.50 53.27 54.58 54.03 53.47 55.35 50.76 52.03 46.75 46.22
55.25 54.79 53.94 53.98 53.82 53.86 53.86 54.10 54.20 53.84 52.58 51.83 60.25 59.93 61.06 64.84 63.24 59.48 53.91 54.30 54.59 56.07 55.97 54.51 53.83 53.06 53.45 52.52 52.56 52.25 52.59 55.16 55.07 53.71 55.71 54.69 52.92 52.62 53.92 53.34 52.82 52.44 51.76 52.46 52.33 51.42 47.92
55.15 53.88 53.82 53.76 53.69 53.77 53.90 54.18 53.92 52.91 51.29 52.92 61.06 56.72 61.55 64.46 57.29 58.95 55.00 55.02 50.03 53.96 55.15 55.04 55.50 54.73 54.23 53.68 53.39 52.65 51.91 55.10 58.24 56.79 52.88 55.23 53.52 50.90 52.49 55.33 55.41 54.82 54.01 53.80 50.16 50.10 51.55
53.50 54.58 53.66 53.51 53.65 53.80 53.88 54.04 53.86 52.71 51.44 57.19 60.17 59.16 62.88 62.31 54.04 54.20 54.77 52.87 53.11 53.46 53.16 53.61 53.20 54.47 55.10 54.55 52.84 53.40 54.64 57.84 58.64 58.16 55.75 55.74 52.54 49.63 51.76 53.75 55.08 53.32 54.62 54.76 54.30 53.50 50.54
52.52 53.35 54.06 53.35 53.59 53.74 54.00 54.16 53.88 53.01 52.09 56.15 58.62 54.37 58.83 60.60 58.09 55.25 54.01 52.37 51.60 53.49 53.05 53.55 53.86 55.43 54.47 53.87 56.14 54.16 54.65 56.85 58.23 58.78 57.59 57.92 54.40 52.86 49.63 52.79 54.80 51.98 53.12 53.64 53.69 50.56 51.31
51.95 52.12 52.70 53.34 53.28 53.57 53.90 54.16 54.08 53.08 52.65 56.93 56.63 53.36 53.59 53.89 53.72 54.49 53.88 52.33 51.17 50.70 53.51 54.50 53.06 52.85 53.35 52.40 53.16 53.28 55.13 56.18 57.56 58.24 58.75 57.81 53.58 54.95 54.69 54.54 54.30 53.69 53.46 54.14 53.52 53.95 51.40
51.66 51.81 52.00 52.58 53.55 53.45 53.74 54.21 54.08 52.65 51.76 58.18 54.40 54.48 54.65 53.26 51.10 52.05 49.64 51.27 49.93 50.50 51.44 51.04 51.61 51.88 52.90 52.50 53.95 53.30 54.62 55.12 54.86 57.56 56.81 57.20 53.70 54.78 52.90 54.61 54.65 53.02 54.38 54.54 54.42 54.51 54.54
51.13 51.34 51.47 51.89 52.56 53.75 54.15 54.19 54.00 52.37 53.74 56.28 56.16 57.61 53.76 46.05 49.08 49.51 50.75 50.10 49.40 50.46 51.45 52.61 51.63 51.59 50.35 53.33 54.89 56.23 56.80 56.68 56.27 54.96 55.00 54.67 53.99 52.85 49.91 53.46 53.27 50.03 53.72 54.44 55.15 56.35 55.57
50.77 50.80 51.09 51.47 52.08 52.99 54.04 53.97 54.10 52.76 52.26 57.11 54.18 55.27 52.91 48.75 51.61 50.43 48.83 49.04 48.32 49.38 49.28 51.73 52.42 51.18 54.12 57.42 57.35 56.60 55.76 54.81 54.87 54.74 55.76 52.84 52.54 51.66 48.12 50.44 43.35 52.25 55.89 55.59 53.95 54.82 56.20
50.35 50.58 50.80 51.03 51.60 52.31 53.29 54.37 54.13 53.78 52.37 57.32 56.93 55.20 53.40 50.20 51.63 49.79 49.33 49.87 50.73 51.31 49.94 50.19 51.47 55.00 57.00 54.42 50.03 47.87 47.88 49.42 50.80 52.90 53.12 53.52 51.23 47.17 44.86 44.87 47.72 48.92 51.27 52.48 53.46 53.63 57.98
49.82 49.97 50.29 50.86 51.14 51.73 52.75 53.87 54.44 53.98 52.66 58.17 56.73 57.55 55.43 52.65 49.99 50.60 51.06 50.06 51.97 52.19 50.66 51.30 55.14 56.74 55.54 52.15 49.43 44.34 43.43 45.85 45.50 48.12 53.52 52.65 53.34 48.83 47.17 43.14 41.52 50.68 55.55 57.97 57.12 49.12 58.68
49.85 50.16 50.35 50.42 50.95 51.49 51.92 53.41 54.12 54.43 52.86 55.94 56.52 57.92 55.89 53.42 52.67 52.63 51.63 50.17 52.34 51.69 51.80 51.50 52.09 53.11 54.94 51.28 46.86 45.52 44.89 48.19 44.07 44.90 47.88 48.26 49.26 46.38 46.69 44.89 48.09 52.89 55.23 56.53 46.59 49.56 56.77
49.62 49.67 50.14 50.80 50.91 51.31 51.59 52.51 53.70 54.37 54.08 54.74 56.29 58.00 54.97 52.99 53.24 52.47 52.53 52.05 53.27 53.11 50.30 51.27 51.16 51.91 52.10 48.36 49.13 49.78 46.80 50.05 47.39 49.06 48.39 47.57 47.03 46.15 47.39 44.92 42.67 55.89 53.99 49.54 53.25 56.49 57.06
49.27 49.93 49.93 50.86 51.72 51.70 51.64 52.00 53.18 53.80 53.71 53.61 55.57 56.69 55.70 51.67 53.27 54.89 54.70 55.17 54.08 53.66 53.32 53.57 51.44 50.50 53.26 51.72 51.88 51.02 47.96 50.05 48.47 44.27 52.42 45.91 49.50 48.25 49.34 49.44 56.00 57.00 55.43 57.49 57.35 56.50 56.82
MSLP
1019.58 1019.30 1018.95 1018.61 1018.27 1017.83 1017.38 1016.86 1016.44 1015.99 1015.52 1015.08 1014.60 1014.07 1013.76 1013.44 1013.09 1012.83 1012.71 1012.62 1012.46 1012.05 1011.86 1011.73 1011.52 1011.22 1010.57 1008.34 1006.85 1007.33 1007.84 1007.94 1007.64 1007.21 1006.42 1005.56 1004.59 1004.14 1003.58 1003.61 1003.34 1003.24 1003.58 1003.73 1004.04 1004.56 1004.84
1019.85 1019.50 1019.05 1018.70 1018.37 1018.03 1017.58 1017.08 1016.58 1016.09 1015.61 1015.12 1014.72 1014.19 1013.63 1013.21 1012.95 1012.65 1012.37 1012.26 1012.22 1012.16 1011.82 1011.53 1011.29 1011.02 1009.28 1006.81 1006.95 1007.06 1007.09 1007.38 1006.88 1006.79 1005.96 1005.28 1004.90 1004.70 1003.85 1003.76 1003.48 1003.75 1003.70 1004.04 1004.35 1004.87 1005.32
1020.13 1019.69 1019.28 1018.92 1018.50 1018.13 1017.63 1017.27 1016.78 1016.23 1015.72 1015.19 1014.61 1014.16 1013.69 1013.07 1012.70 1012.43 1012.14 1011.98 1011.92 1011.97 1011.81 1011.34 1011.01 1010.44 1008.20 1006.97 1006.90 1006.96 1007.07 1006.60 1006.67 1006.26 1005.44 1005.50 1005.20 1004.42 1004.04 1003.77 1004.19 1003.78 1003.85 1004.18 1004.51 1004.88 1005.14
1020.33 1019.94 1019.44 1019.01 1018.56 1018.16 1017.69 1017.21 1016.69 1016.14 1015.71 1015.25 1014.59 1013.99 1013.45 1013.06 1012.63 1012.23 1012.02 1011.71 1011.56 1011.57 1011.44 1011.20 1010.90 1009.68 1007.00 1007.10 1006.89 1007.00 1006.82 1006.53 1006.60 1006.34 1006.06 1005.78 1005.22 1004.35 1003.96 1004.40 1004.12 1003.73 1003.75 1003.10 1004.41 1004.83 1005.27
1020.67 1020.15 1019.57 1019.06 1018.59 1018.12 1017.63 1017.14 1016.61 1016.09 1015.54 1014.95 1014.43 1013.90 1013.38 1012.95 1012.44 1012.02 1011.80 1011.45 1011.17 1011.04 1010.98 1010.81 1010.23 1008.43 1006.81 1007.57 1006.68 1006.17 1006.29 1005.76 1005.90 1006.00 1005.80 1005.79 1004.95 1004.04 1003.95 1003.18 1003.29 1003.45 1003.20 1003.39 1003.90 1004.57 1004.95
1020.68 1020.19 1019.67 1019.20 1018.71 1018.16 1017.58 1017.08 1016.54 1015.93 1015.37 1014.78 1014.25 1013.78 1013.30 1012.80 1012.31 1011.74 1011.40 1011.07 1010.87 1010.73 1010.42 1009.82 1008.93 1007.69 1006.74 1005.91 1005.98 1006.11 1006.29 1006.07 1005.41 1005.33 1005.24 1004.97 1004.13 1003.32 1003.17 1002.73 1002.87 1003.25 1003.27 1003.39 1003.71 1004.14 1004.44
1020.80 1020.37 1019.82 1019.22 1018.64 1018.14 1017.64 1017.06 1016.53 1016.01 1015.50 1015.04 1014.39 1013.80 1013.36 1012.77 1012.17 1011.56 1011.22 1010.26 1010.06 1009.24 1008.28 1006.95 1006.34 1005.94 1005.58 1005.78 1006.02 1005.72 1005.85 1005.71 1005.34 1005.03 1004.30 1004.42 1003.56 1002.48 1002.89 1003.33 1003.63 1003.64 1003.47 1003.43 1003.60 1003.98 1004.08
1020.93 1020.42 1019.90 1019.33 1018.77 1018.16 1017.58 1017.01 1016.50 1015.97 1015.46 1014.91 1014.50 1013.88 1013.25 1012.67 1012.12 1011.56 1010.82 1008.25 1007.65 1007.58 1006.26 1006.34 1006.27 1005.98 1005.70 1005.50 1005.09 1005.42 1005.76 1005.24 1004.89 1004.18 1004.34 1004.16 1003.11 1003.18 1003.81 1003.77 1003.58 1003.19 1002.90 1002.75 1003.35 1003.89 1003.91
1021.21 1020.65 1020.10 1019.46 1018.78 1018.12 1017.48 1016.96 1016.45 1015.78 1015.21 1014.63 1014.00 1013.51 1013.06 1012.50 1011.88 1011.26 1009.18 1007.73 1007.58 1007.24 1005.71 1005.67 1005.49 1005.07 1005.10 1005.21 1004.41 1004.63 1005.25 1004.87 1004.52 1004.07 1003.88 1003.39 1003.44 1003.97 1003.76 1003.42 1003.21 1002.37 1002.47 1002.72 1002.88 1003.38 1003.19
1021.37 1020.73 1020.13 1019.47 1018.77 1018.10 1017.44 1016.89 1016.27 1015.59 1015.02 1014.46 1013.93 1013.34 1013.04 1012.41 1012.18 1009.33 1008.01 1007.69 1007.54 1007.46 1005.03 1004.94 1004.74 1004.50 1004.99 1004.68 1004.51 1004.84 1004.80 1004.77 1004.64 1004.03 1004.00 1003.62 1003.46 1003.86 1003.51 1003.14 1003.12 1002.05 1003.10 1003.04 1002.79 1002.41 1001.50
1021.46 1020.86 1020.21 1019.53 1018.88 1018.19 1017.47 1016.76 1015.99 1015.34 1014.67 1014.23 1013.68 1013.19 1012.82 1012.75 1010.82 1008.47 1007.90 1007.65 1007.42 1006.92 1003.83 1004.25 1004.17 1004.67 1004.35 1004.10 1004.26 1004.89 1005.09 1004.88 1004.15 1004.12 1004.53 1003.18 1003.54 1003.54 1003.14 1002.74 1003.18 1003.04 1003.22 1002.81 1002.58 1001.90 1001.73
1021.66 1021.05 1020.36 1019.63 1018.94 1018.26 1017.50 1016.70 1015.84 1015.09 1014.35 1013.64 1013.19 1012.79 1012.48 1011.62 1010.37 1008.21 1007.99 1007.67 1007.22 1005.37 1003.10 1003.45 1003.59 1003.74 1003.73 1003.66 1003.92 1004.60 1004.83 1004.90 1004.69 1004.49 1004.31 1003.55 1004.17 1003.75 1002.95 1003.18 1003.21 1003.41 1003.11 1002.67 1002.17 1001.47 1000.57
1021.80 1021.15 1020.50 1019.83 1019.15 1018.35 1017.47 1016.65 1015.74 1014.77 1013.95 1013.10 1012.47 1012.08 1012.02 1010.05 1007.91 1008.21 1007.88 1006.92 1005.23 1003.35 1003.44 1002.98 1002.76 1002.98 1002.72 1002.95 1003.40 1003.76 1004.08 1004.22 1003.78 1003.85 1003.20 1003.13 1003.16 1003.17 1003.47 1002.95 1003.08 1003.00 1002.10 1001.10 1000.49 1000.08 999.89
1021.88 1021.32 1020.69 1020.00 1019.26 1018.48 1017.60 1016.57 1015.59 1014.59 1013.56 1012.57 1011.80 1011.30 1010.77 1009.34 1008.62 1008.39 1007.30 1005.84 1003.98 1002.92 1002.47 1002.99 1002.62 1002.62 1002.36 1002.59 1002.80 1003.29 1003.45 1003.33 1003.65 1003.48 1002.63 1002.21 1001.79 1002.27 1002.54 1002.54 1001.83 1001.72 1001.59 1000.77 1000.29 1000.06 1000.02
1022.00 1021.33 1020.69 1020.07 1019.34 1018.53 1017.65 1016.66 1015.64 1014.46 1013.26 1012.30 1011.28 1009.82 1008.91 1008.34 1008.35 1008.24 1006.46 1004.54 1002.98 1003.06 1003.12 1002.77 1002.83 1002.22 1002.10 1002.43 1002.62 1002.91 1002.96 1002.67 1002.75 1003.33 1002.85 1002.11 1001.89 1002.53 1002.74 1002.33 1002.51 1001.66 1001.89 1001.17 1000.79 1000.64 1000.57
1022.18 1021.64 1020.99 1020.29 1019.48 1018.53 1017.55 1016.44 1015.32 1014.23 1013.08 1012.23 1010.17 1008.18 1007.90 1008.09 1008.11 1007.27 1005.73 1004.13 1004.21 1004.41 1004.09 1003.56 1002.28 1002.29 1001.53 1001.92 1002.41 1002.42 1002.54 1002.86 1002.84 1002.98 1002.96 1002.36 1002.14 1002.23 1002.77 1002.76 1002.80 1002.21 1001.77 1001.31 1000.98 1000.52 1000.06
1022.25 1021.72 1021.11 1020.41 1019.60 1018.70 1017.67 1016.53 1015.22 1013.95 1012.57 1011.71 1009.83 1007.03 1007.78 1007.75 1007.62 1006.23 1004.75 1004.42 1005.00 1005.05 1004.90 1003.99 1003.09 1002.66 1002.03 1001.93 1002.03 1001.94 1002.01 1003.44 1003.67 1003.48 1003.26 1002.68 1002.60 1002.08 1002.54 1001.86 1001.02 1002.05 1001.62 1001.59 1001.10 1000.82 1000.08
1022.38 1021.76 1021.23 1020.51 1019.72 1018.79 1017.74 1016.57 1015.32 1014.05 1012.52 1011.15 1008.79 1006.61 1007.54 1007.54 1006.38 1005.94 1005.21 1005.57 1006.12 1005.39 1005.24 1004.66 1004.35 1003.70 1003.07 1003.08 1002.51 1002.36 1002.68 1003.20 1004.41 1003.89 1003.40 1003.27 1002.25 1001.53 1001.15 1001.41 1001.76 1001.43 1001.04 1000.95 1000.50 1000.58 1000.67
1022.59 1021.92 1021.33 1020.63 1019.82 1018.88 1017.87 1016.80 1015.55 1014.43 1013.68 1011.92 1008.61 1007.39 1007.21 1006.91 1005.53 1005.60 1006.40 1006.24 1006.34 1005.82 1005.89 1005.34 1004.98 1004.95 1004.67 1003.94 1003.76 1003.56 1003.76 1004.98 1004.87 1004.30 1003.85 1003.60 1002.62 1001.42 1001.05 1001.48 1001.94 1001.52 1001.13 1001.33 1001.09 1000.96 1000.73
1022.77 1022.12 1021.49 1020.80 1020.06 1019.16 1018.09 1016.91 1015.63 1014.47 1013.57 1012.70 1009.38 1007.35 1007.21 1007.13 1007.20 1006.09 1006.24 1006.45 1006.69 1007.18 1006.81 1006.56 1006.08 1005.76 1005.27 1004.83 1004.90 1004.64 1004.64 1005.25 1005.55 1005.27 1005.54 1004.82 1002.79 1001.97 1000.78 1000.36 1001.44 1001.59 1001.65 1001.81 1001.64 1000.94 1000.21
1023.11 1022.52 1021.84 1021.14 1020.36 1019.49 1018.57 1017.29 1015.79 1014.50 1013.29 1012.74 1010.34 1009.50 1009.65 1007.59 1007.86 1007.56 1007.41 1007.47 1007.20 1007.38 1007.67 1007.43 1006.88 1006.63 1006.28 1005.73 1005.56 1005.33 1005.64 1005.54 1005.84 1006.09 1005.66 1004.66 1003.56 1002.88 1002.53 1002.25 1002.43 1002.29 1002.12 1001.94 1001.73 1001.67 1001.26
1023.30 1022.71 1022.07 1021.43 1020.76 1020.04 1019.05 1017.84 1016.40 1014.68 1013.14 1011.95 1011.15 1010.60 1010.47 1009.74 1009.36 1008.65 1008.74 1008.85 1008.60 1008.83 1008.82 1008.09 1007.81 1008.07 1007.66 1007.19 1007.06 1006.43 1006.87 1006.35 1005.80 1006.09 1005.67 1005.12 1004.46 1004.34 1003.65 1003.23 1003.00 1002.57 1002.45 1002.28 1002.11 1002.00 1001.71
1023.57 1023.03 1022.42 1021.82 1021.13 1020.38 1019.51 1018.53 1017.45 1016.03 1013.55 1012.98 1013.70 1012.97 1011.61 1011.00 1009.91 1009.45 1009.84 1010.16 1010.25 1010.35 1010.16 1010.02 1009.73 1009.22 1008.81 1008.91 1009.49 1008.88 1008.39 1007.92 1007.45 1007.19 1006.30 1005.96 1005.28 1004.91 1003.88 1003.70 1003.17 1002.79 1002.48 1002.14 1001.99 1002.07 1001.85
1023.75 1023.25 1022.66 1022.05 1021.42 1020.79 1020.09 1019.28 1018.42 1017.64 1016.72 1015.25 1015.70 1014.28 1011.70 1010.94 1010.50 1010.76 1011.20 1011.39 1011.34 1011.52 1011.13 1010.83 1010.77 1010.38 1010.95 1010.74 1009.81 1009.09 1008.48 1007.96 1007.65 1007.37 1007.10 1006.60 1006.46 1006.05 1004.95 1004.88 1003.21 1002.55 1002.56 1002.68 1002.61 1002.75 1003.00
1023.88 1023.41 1022.91 1022.35 1021.77 1021.16 1020.51 1019.80 1019.09 1018.44 1017.78 1016.21 1015.93 1014.81 1013.17 1011.81 1011.89 1012.23 1012.27 1012.19 1012.39 1012.60 1012.47 1011.93 1011.55 1011.90 1011.68 1010.85 1009.64 1008.72 1007.99 1007.69 1007.11 1006.88 1006.85 1006.67 1006.79 1006.13 1005.53 1004.60 1003.65 1003.07 1003.20 1003.59 1003.56 1003.56 1004.23
1023.95 1023.47 1022.97 1022.49 1021.98 1021.43 1020.87 1020.26 1019.60 1019.06 1018.44 1016.90 1016.60 1016.12 1014.62 1012.73 1013.05 1013.50 1013.01 1013.21 1012.45 1012.36 1012.47 1012.41 1012.66 1012.56 1011.95 1010.67 1009.61 1008.75 1007.35 1006.91 1006.68 1006.65 1007.07 1006.72 1006.94 1006.97 1006.09 1005.05 1003.88 1003.68 1004.82 1005.24 1005.39 1005.07 1005.85
1024.10 1023.65 1023.15 1022.63 1022.09 1021.59 1021.10 1020.54 1019.99 1019.49 1018.98 1017.86 1017.01 1016.94 1015.37 1013.89 1014.46 1014.48 1013.72 1013.78 1013.93 1013.37 1012.57 1012.96 1013.00 1012.56 1012.34 1010.67 1009.72 1008.73 1007.79 1007.82 1007.19 1006.79 1006.88 1007.02 1007.01 1006.62 1006.19 1005.52 1004.67 1004.73 1005.73 1006.20 1006.40 1007.09 1007.59
1024.14 1023.72 1023.22 1022.77 1022.21 1021.73 1021.28 1020.81 1020.30 1019.83 1019.41 1018.48 1017.63 1017.62 1016.67 1015.44 1015.12 1015.41 1015.20 1014.83 1014.58 1014.21 1013.15 1013.82 1013.43 1012.91 1012.18 1011.32 1010.49 1009.49 1009.30 1008.37 1008.59 1007.81 1007.43 1007.04 1006.84 1006.33 1006.29 1005.93 1005.55 1006.28 1006.80 1007.30 1008.37 1008.45 1008.43
1024.04 1023.65 1023.24 1022.76 1022.26 1021.76 1021.37 1021.02 1020.58 1020.21 1019.83 1019.25 1017.53 1018.14 1018.34 1017.33 1015.91 1016.24 1015.89 1015.97 1015.85 1015.44 1014.72 1014.46 1013.98 1013.79 1013.41 1012.36 1012.22 1011.41 1010.48 1009.81 1009.34 1008.31 1008.77 1008.55 1008.00 1007.54 1006.93 1006.38 1007.73 1008.20 1008.59 1008.86 1008.98 1009.06 1009.03
Wind_Speed
17 17 17 17 16 16 17 17 16 16 17 17 17 17 17 16 14 13 10 7 7 8 8 8 9 9 7 8 7 6 7 10 10 5 5 3 2 4 4 3 2 7 7 9 10 10 10
17 18 18 18 17 17 17 18 17 17 17 18 17 17 18 17 15 13 11 8 6 6 7 9 8 9 7 6 2 6 11 11 7 8 1 3 6 6 3 5 8 7 13 13 10 10 8
18 18 18 18 18 18 18 18 18 18 18 18 18 17 17 17 16 14 12 9 6 5 7 8 6 6 6 7 3 6 10 8 4 4 2 5 7 6 2 8 2 6 12 11 9 7 5
18 18 18 19 19 19 19 19 19 19 19 18 18 18 18 17 17 15 11 9 8 7 7 6 5 4 2 4 1 6 8 8 6 5 3 2 6 2 4 4 5 4 4 3 8 6 4
18 18 19 19 19 19 20 20 20 19 19 19 18 18 18 18 18 15 11 10 8 5 5 6 7 6 7 1 5 5 6 4 7 6 3 4 6 3 6 9 8 6 3 3 4 5 5
19 20 20 20 20 20 20 20 21 21 21 21 21 20 20 17 16 15 10 5 5 5 6 6 4 7 8 5 6 5 5 4 4 5 4 6 5 5 5 6 5 5 5 2 2 6 7
21 21 21 21 21 20 20 21 22 22 22 21 21 20 19 18 16 12 4 5 7 7 7 6 3 3 5 7 8 7 7 7 6 8 10 2 9 5 12 5 5 6 5 5 2 1 9
21 22 21 21 21 21 21 22 22 22 22 22 20 19 19 18 17 7 6 5 5 7 4 3 4 4 2 1 6 9 8 9 9 12 5 7 9 4 1 2 7 9 8 3 4 2 6
21 20 20 20 21 22 21 23 23 24 23 22 22 20 18 18 14 5 6 2 1 5 7 6 4 5 7 7 4 11 13 6 10 11 11 13 10 4 2 3 8 4 6 5 5 2 6
19 19 20 21 22 22 23 24 24 25 24 21 19 20 17 19 4 2 5 3 5 5 7 8 9 7 8 5 7 1 10 6 6 10 5 8 2 7 7 6 6 5 5 2 1 7 5
20 19 20 21 22 23 24 26 26 26 23 22 18 19 16 10 7 6 6 4 2 6 7 7 8 6 5 8 9 7 6 8 9 8 7 2 5 8 11 10 4 7 4 3 3 7 7
18 18 20 21 23 24 25 27 27 27 26 25 20 17 14 6 5 4 4 2 6 8 3 7 8 11 13 10 6 8 10 5 3 5 8 12 0 5 5 3 3 5 4 5 6 9 11
18 19 20 21 22 24 26 27 28 28 28 27 23 16 7 4 2 2 4 5 7 8 4 9 10 10 14 10 8 10 13 13 10 10 13 13 14 10 8 10 8 9 12 9 5 6 2
17 18 20 22 24 26 27 27 30 28 29 25 24 15 8 5 3 6 6 7 7 3 5 3 5 7 12 9 7 9 11 12 10 7 1 8 12 16 14 16 10 13 15 10 6 8 7
16 20 22 23 25 26 27 29 29 30 30 27 22 5 4 2 4 5 8 8 4 1 2 5 7 10 10 10 4 10 12 11 9 14 8 5 5 4 3 7 10 11 12 10 12 8 10
16 19 22 23 25 26 28 30 31 32 29 25 4 3 5 1 3 7 8 6 0 3 3 5 9 6 12 14 12 12 11 2 8 10 14 2 6 2 5 6 4 12 6 9 11 13 15
17 18 22 23 25 27 28 29 31 31 30 19 5 4 5 2 5 7 9 2 3 3 4 4 3 5 6 7 13 12 7 7 2 4 11 9 9 8 6 11 8 8 10 8 11 8 10
19 19 21 23 25 27 29 29 30 30 30 7 5 3 4 4 7 3 7 1 2 1 1 1 2 2 4 5 10 9 10 2 2 4 7 11 8 10 13 6 3 9 11 10 9 9 8
20 18 20 23 25 27 28 29 29 28 22 7 2 3 3 4 5 7 5 5 3 2 3 1 1 3 1 2 4 4 4 3 4 4 4 7 9 11 13 9 9 10 10 11 12 10 12
19 20 20 22 24 26 28 29 30 29 22 5 4 5 4 2 2 3 7 5 6 4 5 2 1 2 4 5 0 4 7 3 2 3 5 3 13 12 13 8 5 4 8 6 10 10 12
19 19 20 20 23 26 27 29 31 30 23 6 4 4 5 4 4 3 3 1 6 4 2 3 3 1 3 6 6 5 3 5 5 4 3 7 12 12 13 11 11 13 15 14 15 13 17
18 19 20 21 20 23 26 27 30 33 30 3 4 3 2 3 2 4 2 2 2 4 3 3 3 3 3 6 6 3 6 4 3 1 5 4 9 7 15 13 14 18 17 17 18 17 19
17 18 19 20 20 20 22 25 27 30 23 6 4 1 7 1 3 5 3 3 3 2 2 3 3 6 6 5 8 8 8 9 9 7 7 7 9 9 16 15 14 17 18 22 20 20 18
16 17 18 18 19 19 20 23 23 24 20 5 4 5 5 4 1 4 3 0 2 0 3 1 4 4 7 9 11 9 11 12 12 12 12 10 9 10 14 13 21 13 12 14 16 15 12
16 17 17 17 18 18 18 19 20 19 21 6 5 5 5 4 5 6 3 1 2 3 4 5 2 5 8 8 7 7 10 12 18 18 16 14 12 12 12 13 16 19 10 9 8 9 5
16 17 17 16 16 17 17 17 18 18 18 6 7 5 3 2 6 3 1 2 1 1 6 3 2 5 5 6 7 8 7 5 5 4 6 13 11 13 12 14 16 3 8 6 6 14 11
15 15 15 16 16 15 16 16 17 17 16 8 5 9 4 2 4 3 3 5 3 2 2 3 1 4 4 4 7 9 10 3 8 10 6 10 12 16 14 15 13 4 4 2 12 4 8
14 14 14 14 14 14 15 15 15 15 16 10 4 7 7 3 4 2 1 1 2 2 4 5 6 5 4 6 3 3 7 2 6 10 8 10 9 11 13 16 19 9 3 9 9 8 10
13 14 14 13 14 13 13 13 14 14 15 13 2 5 4 3 6 2 4 5 5 4 4 2 5 3 4 3 2 3 6 4 7 8 5 10 11 10 9 4 7 4 6 6 10 9 7
Wind_Direction
20 19 19 17 13 9 5 358 354 352 351 349 345 341 340 339 338 334 329 323 314 305 306 306 302 311 261 212 82 111 151 148 180 224 255 309 8 287 71 61 91 30 96 101 122 130 131
19 17 16 13 11 7 3 358 352 351 347 345 343 340 337 338 337 334 329 321 309 298 296 291 303 302 253 191 67 138 168 173 203 224 171 339 11 351 48 32 41 76 103 115 124 125 146
17 14 12 9 7 2 359 355 351 348 346 342 340 338 337 338 336 333 327 316 296 275 267 283 291 284 255 69 29 145 178 195 195 248 62 28 342 297 314 107 64 117 118 124 131 148 144
15 11 8 4 2 359 356 352 350 347 343 339 340 339 338 336 332 330 326 310 288 256 254 246 258 252 72 15 73 167 181 191 214 222 284 9 315 356 338 132 164 124 264 229 130 186 130
13 8 5 2 360 354 351 350 347 345 342 340 341 341 337 334 332 326 316 303 272 238 220 210 221 247 130 134 214 156 202 213 175 195 225 286 266 343 181 205 178 198 17 18 187 199 165
10 7 4 1 357 352 349 348 347 345 344 344 343 343 338 332 329 322 307 262 177 200 204 219 245 229 159 153 142 154 180 242 205 173 204 233 238 241 183 245 46 6 344 12 263 172 212
7 5 2 358 353 350 348 349 349 347 345 344 341 340 336 331 333 325 239 193 206 176 215 342 82 1 135 110 160 187 177 186 200 219 235 167 270 246 23 8 344 311 307 308 141 165 264
4 359 357 353 350 347 347 350 346 343 342 341 341 339 337 333 331 332 268 263 34 4 221 208 241 257 192 333 162 158 188 209 210 224 209 237 251 23 36 275 282 305 304 61 127 108 258
3 356 352 349 347 345 345 347 343 340 342 341 339 339 338 331 328 252 260 290 21 318 256 146 181 199 176 215 202 173 199 203 225 224 224 256 65 116 229 245 279 273 353 38 7 177 224
0 353 350 348 346 344 342 343 341 340 340 339 335 334 334 327 278 130 220 124 265 283 247 133 183 163 180 231 189 342 212 225 214 245 220 264 70 244 248 268 286 306 12 318 204 268 30
360 351 348 347 345 343 340 342 340 339 336 337 331 328 324 319 323 227 62 315 235 222 223 139 143 104 168 218 118 165 169 203 240 201 230 191 215 224 249 270 283 50 334 298 284 259 282
354 350 348 346 345 343 342 343 340 338 337 333 329 321 316 197 223 307 301 259 234 230 159 147 144 178 180 193 144 138 180 226 339 216 230 275 17 252 280 154 254 147 233 216 233 276 270
355 350 349 347 346 344 344 343 341 338 336 332 328 318 261 297 47 354 263 215 225 260 136 153 170 184 198 178 161 182 184 195 206 207 220 213 232 221 230 236 187 220 249 254 240 228 315
354 351 352 349 348 346 345 341 341 338 335 331 326 313 175 280 302 298 218 221 247 50 173 111 169 185 196 171 197 177 185 203 210 249 263 223 201 208 214 233 258 223 257 280 289 290 331
354 353 353 350 348 346 345 344 341 338 336 334 314 176 178 68 237 230 226 219 349 123 67 189 170 199 183 190 241 191 206 214 206 208 246 206 221 122 226 239 242 209 239 280 288 242 262
353 357 355 351 349 347 346 344 342 340 337 335 277 203 74 39 185 229 227 260 179 355 298 221 230 245 197 187 201 201 180 148 221 224 233 141 254 137 122 176 175 265 356 228 222 267 272
356 358 356 352 350 349 348 345 340 342 338 334 239 206 61 174 232 216 224 147 169 79 321 280 219 204 247 184 217 202 176 113 222 151 233 226 246 149 194 208 187 172 220 229 289 295 295
355 359 355 354 352 350 349 342 344 346 338 283 284 193 51 237 195 263 209 212 241 86 80 189 281 325 253 202 213 218 196 345 28 227 190 214 247 237 238 113 314 285 280 247 257 233 233
355 356 356 355 353 351 349 344 345 348 355 312 312 71 104 266 211 188 147 141 51 178 51 324 166 336 319 182 220 239 175 96 22 228 205 177 228 239 222 186 203 231 225 248 265 273 264
356 357 355 354 353 353 349 346 347 348 347 279 272 184 130 105 352 268 178 168 144 55 76 42 40 240 221 211 91 170 180 127 63 27 346 230 255 254 274 315 21 206 202 219 281 273 271
1 358 356 353 354 354 353 348 347 348 345 284 342 66 360 153 102 113 241 265 184 143 50 13 169 62 306 241 231 213 226 184 166 134 224 274 257 259 269 284 281 277 278 271 260 259 272
0 358 358 355 353 356 356 353 352 349 335 68 347 314 151 89 135 200 163 97 214 130 330 141 266 332 307 268 333 323 319 236 292 208 257 246 263 271 264 266 268 266 263 262 262 266 272
0 359 359 356 356 355 357 359 358 358 344 40 13 121 289 169 158 230 78 119 120 277 102 68 334 283 246 44 328 316 297 296 290 290 271 271 273 240 263 270 275 266 258 250 253 262 274
360 359 358 359 358 359 359 2 2 6 358 33 22 288 283 102 295 61 137 159 181 287 300 224 309 278 41 312 282 253 259 257 257 250 245 255 253 272 269 277 255 268 306 316 289 283 295
358 357 358 359 359 360 1 359 4 4 359 19 14 327 333 104 88 129 139 115 193 172 238 271 271 358 315 286 265 253 239 247 246 241 239 245 252 258 251 242 257 268 254 240 273 268 181
355 355 356 357 357 360 359 0 0 3 356 319 37 326 329 281 77 28 160 360 299 146 164 174 143 320 274 261 222 242 242 245 220 204 275 245 227 254 239 251 262 67 48 24 279 256 35
352 352 352 354 357 359 359 357 358 4 357 327 35 0 294 341 94 280 30 358 330 284 301 156 46 189 228 232 242 249 252 208 253 238 182 210 221 229 232 252 254 3 18 329 252 33 347
347 347 348 345 351 353 357 353 353 2 1 336 53 10 338 331 101 216 28 266 189 277 305 77 216 188 208 242 277 238 267 272 282 266 290 246 225 233 236 260 260 37 219 267 10 333 326
341 344 340 339 342 347 352 348 348 359 1 334 2 34 353 289 30 324 305 305 294 356 320 127 21 45 25 277 225 287 241 231 282 270 159 255 292 307 301 285 77 41 11 353 322 310 331